This is the latest recevied weather packets stored in our database for station/object SQ9MHX-13. If no packets are shown the sender has not sent any weather packets the latest 10 day(s).
| Time | Temp. | Humidity | Pressure | Rain* | Wind** | Luminosity | Snow |
|---|---|---|---|---|---|---|---|
| 1777279522 | 12.78° C | 29% | 973.7 hPa | - | 0 m/s | - | - |
| 1777279223 | 12.78° C | 29% | 973.5 hPa | - | 0 m/s | - | - |
| 1777278924 | 12.78° C | 28% | 974.2 hPa | - | 0 m/s | - | - |
| 1777278626 | 12.22° C | 28% | 974 hPa | - | 0 m/s | - | - |
| 1777278327 | 12.22° C | 27% | 974 hPa | - | 0 m/s | - | - |
| 1777277730 | 12.78° C | 27% | 973.9 hPa | - | 0 m/s | - | - |
| 1777277431 | 12.78° C | 27% | 973.9 hPa | - | 0 m/s | - | - |
| 1777277133 | 12.78° C | 29% | 974.1 hPa | - | 0 m/s | - | - |
| 1777276834 | 12.22° C | 30% | 974.7 hPa | - | 0 m/s | - | - |
| 1777276535 | 12.22° C | 29% | 974.8 hPa | - | 0 m/s | - | - |
| 1777276237 | 12.22° C | 28% | 974.5 hPa | - | 0 m/s | - | - |
| 1777275938 | 12.78° C | 30% | 974.2 hPa | - | 0 m/s | - | - |
| 1777274445 | 12.22° C | 32% | 975.5 hPa | - | 0 m/s | - | - |
| 1777274147 | 11.11° C | 33% | 975.4 hPa | - | 0 m/s | - | - |
| 1777273848 | 11.11° C | 34% | 976.1 hPa | - | 0 m/s | - | - |
| 1777273251 | 11.11° C | 39% | 976.8 hPa | - | 0 m/s | - | - |
| 1777272953 | 10° C | 44% | 977.5 hPa | - | 0 m/s | - | - |
| 1777272654 | 11.11° C | 42% | 978 hPa | - | 0 m/s | - | - |
| 1777272356 | 10° C | 42% | 978.9 hPa | - | 0 m/s | - | - |
| 1777271759 | 8.89° C | 43% | 980.5 hPa | - | 0 m/s | - | - |
| 1777271460 | 8.89° C | 43% | 980.5 hPa | - | 0 m/s | - | - |
| 1777271162 | 8.89° C | 44% | 980.7 hPa | - | 0 m/s | - | - |
| 1777270871 | 8.89° C | 44% | 980.7 hPa | - | 0 m/s | - | - |
| 1777270863 | 8.89° C | 44% | 980.7 hPa | - | 0 m/s | - | - |
| 1777270565 | 7.78° C | 45% | 981 hPa | - | 0 m/s | - | - |
* Rain since midnight (hover to see other rain measurements)
** Current wind speed in m/s (hover to see current wind gust speed)